Location: Sceptre
(50.8619°N, 109.2670°W)
Time: 21:40:29
(UTC+00:00)

CAS-4A - Visible Passes

Search period start: 27 June 2022 00:00
Search period end: 07 July 2022 00:00
Orbit: 523 x 536 km, 43.0° (Epoch: 27 June)

Date Brightness Start Highest point End Pass type
(mag) Time Alt. Az. Time Alt. Az. Time Alt. Az.
29 Jun ? 10:22:23 10° SSW 10:24:58 16° SSE 10:27:33 10° ESE visible
30 Jun ? 10:09:31 10° SSW 10:12:19 18° SSE 10:15:07 10° ESE visible
01 Jul ? 09:56:57 11° SSW 09:59:40 20° SSE 10:02:38 10° ESE visible
02 Jul ? 09:44:39 13° SSW 09:47:01 21° SSE 09:50:07 10° ESE visible
03 Jul ? 09:32:21 16° SSW 09:34:22 23° SSE 09:37:35 10° ESE visible
04 Jul ? 09:20:02 18° SSW 09:21:43 24° S 09:25:00 10° ESE visible
05 Jul ? 09:07:45 21° SSW 09:09:04 25° S 09:12:24 10° ESE visible
06 Jul ? 08:55:30 24° SSW 08:56:25 26° S 08:59:47 10° ESE visible
